GW2592 Weather Reports


time (UTC)temp
F
wind
direction
speed
knots
gust
knots
rain 1hr
in
rain 24hr
in
rain mn
in
humidity
%
barometer
mb
20260509213022 50 225 0.0 1.7 0.00 0.00 0.00 85
20260509212031 50 172 0.9 4.3 0.00 0.00 0.00 86
20260509211022 50 202 0.0 1.7 0.00 0.00 0.00 86
20260509210030 50 236 0.0 1.7 0.00 0.00 0.00 86
20260509205022 50 0.0 0.0 0.00 0.00 0.00 86
20260509204030 50 0.0 0.0 0.00 0.00 0.00 86
20260509203022 51 0.0 0.0 0.00 0.00 0.00 85
20260509202030 51 0.0 0.0 0.00 0.00 0.00 85
20260509201022 51 0.0 0.0 0.00 0.00 0.00 85
20260509200030 51 0.0 0.0 0.00 0.00 0.00 85
20260509195022 52 0.0 0.0 0.00 0.00 0.00 84
20260509194036 52 0.0 0.0 0.00 0.00 0.00 83
20260509193027 52 0.0 0.0 0.00 0.00 0.00 82
20260509192025 52 0.0 0.0 0.00 0.00 0.00 82
20260509191023 52 0.0 0.0 0.00 0.00 0.00 83
20260509190030 53 0.0 0.0 0.00 0.00 0.00 83
20260509185022 53 0.0 0.0 0.00 0.00 0.00 83
20260509184030 54 0.0 0.0 0.00 0.00 0.00 82
20260509183024 54 0.0 0.0 0.00 0.00 0.00 81
20260509182050 54 0.0 0.0 0.00 0.00 0.00 80
20260509181042 54 0.0 0.0 0.00 0.00 0.00 81
20260509180050 54 0.0 0.0 0.00 0.00 0.00 81
20260509175022 55 0.0 0.0 0.00 0.00 0.00 82
20260509174049 55 0.0 0.0 0.00 0.00 0.00 84
20260509173022 56 0.0 0.0 0.00 0.00 0.00 85
20260509172110 56 0.0 0.0 0.00 0.00 0.00 84
20260509171022 57 0.0 0.0 0.00 0.00 0.00 84
20260509170030 57 0.0 0.0 0.00 0.00 0.00 83
20260509165022 58 0.0 0.0 0.00 0.00 0.00 83
20260509164030 58 0.0 0.0 0.00 0.00 0.00 82
20260509163022 59 0.0 0.0 0.00 0.00 0.00 81
20260509162050 60 0.0 0.0 0.00 0.00 0.00 80
20260509161042 61 0.0 0.0 0.00 0.00 0.00 79
20260509160030 61 0.0 0.0 0.00 0.00 0.00 77
20260509155022 62 0.0 0.0 0.00 0.00 0.00 75
20260509154021 63 0.0 0.0 0.00 0.00 0.00 74
20260509153022 64 0.0 0.0 0.00 0.00 0.00 73
20260509152030 65 0.0 0.0 0.00 0.00 0.00 72
20260509151042 66 0.0 0.0 0.00 0.00 0.00 71
20260509150030 68 0.0 0.0 0.00 0.00 0.00 70
20260509145021 69 0.0 0.0 0.00 0.00 0.00 68
20260509144050 70 0.0 0.0 0.00 0.00 0.00 66
20260509143021 71 0.0 0.0 0.00 0.00 0.00 64
20260509142111 72 0.0 0.0 0.00 0.00 0.00 63
20260509141022 73 0.0 0.0 0.00 0.00 0.00 61
20260509140030 75 0.0 0.0 0.00 0.00 0.00 61
20260509135022 77 0.0 0.0 0.00 0.00 0.00 57
20260509134030 78 0.0 0.0 0.00 0.00 0.00 50
20260509133021 79 227 0.0 1.7 0.00 0.00 0.00 43
20260509132030 79 0.0 0.0 0.00 0.00 0.00 43
20260509131022 79 0.0 0.0 0.00 0.00 0.00 42
20260509130030 78 0.0 0.0 0.00 0.00 0.00 39
20260509125021 78 249 0.0 1.7 0.00 0.00 0.00 45
20260509124030 79 0.0 0.0 0.00 0.00 0.00 44
20260509123101 79 0.0 0.0 0.00 0.00 0.00 41
20260509122030 78 204 0.0 1.7 0.00 0.00 0.00 42
20260509121022 78 219 0.0 1.7 0.00 0.00 0.00 41
20260509120031 77 227 0.9 4.3 0.00 0.00 0.00 40
20260509115042 77 114 0.0 1.7 0.00 0.00 0.00 43
20260509114030 77 245 1.7 4.3 0.00 0.00 0.00 41
20260509113042 77 173 0.0 1.7 0.00 0.00 0.00 42
20260509112030 77 228 0.9 4.3 0.00 0.00 0.00 41
20260509111043 76 0.0 0.0 0.00 0.00 0.00 41
20260509110030 76 245 0.9 4.3 0.00 0.00 0.00 43
20260509105022 76 228 0.9 4.3 0.00 0.00 0.00 43
20260509104030 75 269 0.9 4.3 0.00 0.00 0.00 42
20260509103021 74 265 0.9 1.7 0.00 0.00 0.00 44
20260509102029 73 248 0.9 4.3 0.00 0.00 0.00 45
20260509101021 73 239 0.0 1.7 0.00 0.00 0.00 47
20260509100030 72 257 1.7 8.7 0.00 0.00 0.00 49
20260509095023 72 247 0.0 1.7 0.00 0.00 0.00 48
20260509094030 70 219 0.0 1.7 0.00 0.00 0.00 53
20260509093021 70 0.0 0.0 0.00 0.00 0.00 53
20260509092030 69 213 0.0 1.7 0.00 0.00 0.00 54
20260509091102 68 193 0.0 1.7 0.00 0.00 0.00 53
20260509090030 67 106 0.0 1.7 0.00 0.00 0.00 56
20260509085022 66 0.0 0.0 0.00 0.00 0.00 58
20260509084030 64 268 0.0 4.3 0.00 0.00 0.00 60
20260509083021 62 107 0.0 1.7 0.00 0.00 0.00 63
20260509082030 60 250 0.9 4.3 0.00 0.00 0.00 68
20260509081043 59 242 0.9 4.3 0.00 0.00 0.00 69
20260509080030 58 242 0.9 4.3 0.00 0.00 0.00 72
20260509075021 56 238 0.9 4.3 0.00 0.00 0.00 73
20260509074029 54 244 0.9 4.3 0.00 0.00 0.00 75
20260509073022 52 248 0.9 4.3 0.00 0.00 0.00 78
20260509072030 50 0.0 0.0 0.00 0.00 0.00 81
20260509071042 48 257 0.0 4.3 0.00 0.00 0.00 83
20260509070050 47 252 0.0 1.7 0.00 0.00 0.00 85
20260509065022 46 230 0.0 1.7 0.00 0.00 0.00 87
20260509064050 45 0.0 0.0 0.00 0.00 0.00 89
20260509063021 45 249 0.0 1.7 0.00 0.00 0.00 90
20260509062030 44 0.0 0.0 0.00 0.00 0.00 90
20260509061042 43 229 0.0 1.7 0.00 0.00 0.00 91
20260509060050 43 245 0.0 1.7 0.00 0.00 0.00 91
20260509055021 43 0.0 0.0 0.00 0.00 0.00 91
20260509054030 42 246 0.0 1.7 0.00 0.00 0.00 91
20260509053022 41 0.0 0.0 0.00 0.00 0.00 91
20260509052030 41 0.0 0.0 0.00 0.00 0.00 91
20260509051042 40 0.0 0.0 0.00 0.00 0.00 91
20260509050030 40 0.0 0.0 0.00 0.00 0.00 91
20260509045022 40 0.0 0.0 0.00 0.00 0.00 91
20260509044030 40 0.0 0.0 0.00 0.00 0.00 91
20260509043022 40 0.0 0.0 0.00 0.00 0.00 91
20260509042030 40 0.0 0.0 0.00 0.00 0.00 91
20260509041022 40 0.0 0.0 0.00 0.00 0.00 91
20260509040050 41 0.0 0.0 0.00 0.00 0.00 91
20260509035041 41 0.0 0.0 0.00 0.00 0.00 91
20260509034030 41 0.0 0.0 0.00 0.00 0.00 91
20260509033021 41 0.0 0.0 0.00 0.00 0.00 91
20260509032049 41 0.0 0.0 0.00 0.00 0.00 91
20260509031122 42 0.0 0.0 0.00 0.00 0.00 91
20260509030030 42 0.0 0.0 0.00 0.00 0.00 90
20260509025021 42 0.0 0.0 0.00 0.00 0.00 90
20260509024030 42 0.0 0.0 0.00 0.00 0.00 90
20260509023022 42 0.0 0.0 0.00 0.00 0.00 90
20260509022030 42 0.0 0.0 0.00 0.00 0.00 90
20260509021021 42 0.0 0.0 0.00 0.00 0.00 90
20260509020050 42 0.0 0.0 0.00 0.00 0.00 90
20260509015021 43 0.0 0.0 0.00 0.00 0.00 90
20260509014029 43 0.0 0.0 0.00 0.00 0.00 90
20260509013022 43 0.0 0.0 0.00 0.00 0.00 90
20260509012030 43 0.0 0.0 0.00 0.00 0.00 89
20260509011022 43 0.0 0.0 0.00 0.00 0.00 89
20260509010029 44 0.0 0.0 0.00 0.00 0.00 89
20260509005021 44 0.0 0.0 0.00 0.00 0.00 89
20260509004029 44 0.0 0.0 0.00 0.00 0.00 89
20260509003022 44 0.0 0.0 0.00 0.00 0.00 89
20260509002029 44 0.0 0.0 0.00 0.00 0.00 89
20260509001021 44 0.0 0.0 0.00 0.00 0.00 89
20260509000030 45 0.0 0.0 0.00 0.00 0.00 89
20260508235022 45 0.0 0.0 0.00 0.00 0.00 89
20260508234030 45 0.0 0.0 0.00 0.00 0.00 89
20260508233021 45 207 0.0 1.7 0.00 0.00 0.00 89
20260508232030 45 199 0.0 1.7 0.00 0.00 0.00 88
20260508231021 45 156 0.0 1.7 0.00 0.00 0.00 88
20260508230049 45 0.0 0.0 0.00 0.00 0.00 88
20260508225021 45 0.0 0.0 0.00 0.00 0.00 88
20260508224030 47 0.0 0.0 0.00 0.00 0.00 88
20260508223021 47 0.0 0.0 0.00 0.00 0.00 88
20260508222029 47 0.0 0.0 0.00 0.00 0.00 87
20260508221021 47 0.0 0.0 0.00 0.00 0.00 87
20260508220029 47 0.0 0.0 0.00 0.00 0.00 87
20260508215022 47 0.0 0.0 0.00 0.00 0.00 87
20260508214029 48 207 0.0 1.7 0.00 0.00 0.00 87